Regional Weather Roundup
Issued by NWS

Home | Current Version | Previous Version | Graphics & Text | Print | Product List | Glossary On
Versions: 1 2 3 4 5 6 7 8 9 10 11 12 13 14 15 16 17 18 19 20 21 22 23 24 25 26 27 28 29 30 31 32 33 34 35 36 37 38 39 40 41 42 43 44 45 46 47 48 49 50
602
ASUS43 KLSX 031907
RWRMO

WEATHER SUMMARY FOR MISSOURI
NATIONAL WEATHER SERVICE SPRINGFIELD MO
100 PM CST SAT DEC 03 2016

NOTE: "FAIR" INDICATES FEW OR NO CLOUDS BELOW 12,000 FEET WITH NO
       SIGNIFICANT WEATHER AND/OR OBSTRUCTIONS TO VISIBILITY.
       CURRENT SKY AND/OR WEATHER CONDITIONS ARE NOT AVAILABLE FOR
       CHILLICOTHE AND FARMINGTON.

MOZ001>031-035>038-043-044-053-054-032000-
...NORTHERN AND WESTERN MISSOURI...

CITY           SKY/WX    TMP DP  RH WIND       PRES   REMARKS
KANSAS CTY INT CLOUDY    44  29  55 E12       30.22
KANSAS C DTWN  CLOUDY    46  31  55 E8        30.21F
LEE`S SUMMIT   CLOUDY    47  29  49 E12       30.22
ST JOSEPH      CLOUDY    43  32  65 SE7       30.24F
CHILLICOTHE      N/A     43  32  65 SE7       30.28
KIRKSVILLE     SUNNY     43  34  70 SE10      30.29F

$$
MOZ066>068-077>081-088>096-101>105-032000-
...SOUTHWEST MISSOURI...

CITY           SKY/WX    TMP DP  RH WIND       PRES   REMARKS
SPRINGFIELD    CLOUDY    48  30  49 SE14      30.21F
JOPLIN         MOSUNNY   53  34  48 SE10      30.19F
BRANSON        CLOUDY    45  32  61 SE8       30.24F

$$
MOZ032>034-039>042-045>050-055>058-069>072-032000-
...CENTRAL MISSOURI...

CITY           SKY/WX    TMP DP  RH WIND       PRES   REMARKS
COLUMBIA       CLOUDY    44  31  60 SE9       30.28F
JEFFERSON CITY CLOUDY    44  32  62 SE5       30.29F
ROLLA          CLOUDY    43  32  65 E7        30.25F
SEDALIA        CLOUDY    49  30  48 E13       30.25F
WHITEMAN AFB   CLOUDY    49  31  50 SE10      30.22F
WARRENSBURG    CLOUDY    50  30  46 E8        30.23F
OSAGE BEACH    CLOUDY    46  31  55 SE6       30.26F

$$
MOZ051-052-059>065-032000-
...EAST CENTRAL MISSOURI...

CITY           SKY/WX    TMP DP  RH WIND       PRES   REMARKS
ST LOUIS INTL  NOT AVBL
SPIRIT OF STL  CLOUDY    44  32  62 SE7       30.32F
ST CHARLES     MOSUNNY   44  36  73 E7        30.32F

$$
MOZ072>076-082>087-097>100-106>115-032000-
...SOUTH CENTRAL AND SOUTHEAST MISSOURI...

CITY           SKY/WX    TMP DP  RH WIND       PRES   REMARKS
CAPE GIRARDEAU CLOUDY    44  31  60 E10       30.32F
FARMINGTON     CLOUDY    42  31  64 SE10      30.30F
POPLAR BLUFF   CLOUDY    44  35  70 NE9       30.30F
WEST PLAINS    CLOUDY    44  32  62 SE6       30.27F

$$



USA.gov is the U.S. government's official web portal to all federal, state and local government web resources and services.